Location: Ciserano
(45.5833°N, 9.6000°E)
Time: 15:11:38
(UTC+00:00)

Cosmos 1898 Rocket - Visible Passes

Search period start: 12 April 2021 00:00
Search period end: 22 April 2021 00:00
Orbit: 753 x 784 km, 74.0° (Epoch: 11 April)

Date Brightness Start Highest point End Pass type
(mag) Time Alt. Az. Time Alt. Az. Time Alt. Az.
12 Apr 6.0 01:56:39 10° SE 01:59:21 14° E 02:02:05 10° ENE visible
12 Apr 3.5 03:35:29 10° SSW 03:40:41 78° WNW 03:45:59 10° NNE visible
13 Apr 3.8 02:59:22 14° S 03:03:48 65° ESE 03:09:02 10° NNE visible
14 Apr 4.6 02:23:33 17° SSE 02:27:02 39° ESE 02:31:53 10° NE visible
14 Apr 4.5 04:04:34 10° WSW 04:09:11 31° WNW 04:13:51 10° N visible
15 Apr 5.4 01:47:40 16° SE 01:50:21 24° E 01:54:28 10° NE visible
15 Apr 3.9 03:27:58 15° SW 03:32:05 48° WNW 03:37:13 10° NNE visible
16 Apr 5.9 01:11:44 12° ESE 01:13:46 14° E 01:16:27 10° ENE visible
16 Apr 3.4 02:52:01 25° SSW 02:55:05 79° WNW 03:00:24 10° NNE visible
17 Apr 3.8 02:16:01 34° S 02:18:13 64° ESE 02:23:26 10° NNE visible
17 Apr 5.0 03:56:52 10° WSW 04:00:47 21° NW 04:04:44 10° N visible
18 Apr 4.5 01:39:59 32° SE 01:41:26 38° ESE 01:46:17 10° NE visible
18 Apr 4.5 03:20:16 17° WSW 03:23:34 31° WNW 03:28:16 10° N visible
19 Apr 5.2 01:03:54 22° ESE 01:04:46 23° E 01:08:52 10° NE visible
19 Apr 3.9 02:44:11 30° WSW 02:46:29 49° WNW 02:51:37 10° NNE visible
20 Apr 5.8 00:27:47 14° E 00:28:11 14° E 00:30:49 10° ENE visible
20 Apr 3.4 02:08:04 49° SW 02:09:29 80° WNW 02:14:49 10° NNE visible
20 Apr 5.5 03:49:44 10° W 03:52:30 14° NW 03:55:17 10° NNW visible
21 Apr 3.7 01:31:54 57° SE 01:32:37 63° ESE 01:37:51 10° NNE visible
21 Apr 5.1 03:12:11 14° W 03:15:10 21° NW 03:19:10 10° N visible
